CW6353 Weather Reports


Display with metric or nautical units.
time (UTC)temp
F
wind
direction
speed
MPH
gust
MPH
rain 1hr
in
rain 24hr
in
rain mn
in
humidity
%
barometer
mb
20260831064003 73 156 1.0 2.0 0.00 0.00 0.00 87 1018.8
20260831063507 73 151 0.0 4.0 0.00 0.00 0.00 86 1018.7
20260831063007 73 163 1.0 5.0 0.00 0.00 0.00 86 1018.7
20260831062503 73 126 2.0 5.0 0.00 0.00 0.00 86 1018.6
20260831062004 73 157 2.0 4.0 0.00 0.00 0.00 86 1018.7
20260831061503 73 148 1.0 3.0 0.00 0.00 0.00 86 1018.8
20260831061011 73 138 1.0 4.0 0.00 0.00 0.00 86 1018.8
20260831060504 73 173 2.0 4.0 0.00 0.00 0.00 85 1018.8
20260831060002 74 131 1.0 2.0 0.00 0.00 0.00 85 1018.9
20260831055502 74 149 1.0 3.0 0.00 0.00 0.00 85 1018.9
20260831055003 74 130 1.0 3.0 0.00 0.00 0.00 84 1018.9
20260831054504 74 149 1.0 3.0 0.00 0.00 0.00 84 1019.0
20260831054004 74 117 1.0 5.0 0.00 0.00 0.00 84 1019.0
20260831053504 74 156 2.0 5.0 0.00 0.00 0.00 84 1019.1
20260831053007 74 146 2.0 4.0 0.00 0.00 0.00 84 1019.0
20260831052505 75 154 1.0 4.0 0.00 0.00 0.00 83 1019.0
20260831052002 75 151 1.0 4.0 0.00 0.00 0.00 83 1019.1
20260831051527 75 162 1.0 4.0 0.00 0.00 0.00 83 1018.9
20260831051004 75 158 2.0 6.0 0.00 0.00 0.00 82 1019.0
20260831050501 75 157 2.0 6.0 0.00 0.00 0.00 83 1018.9
20260831050015 75 132 2.0 4.0 0.00 0.00 0.00 82 1019.1
20260831045502 75 159 1.0 4.0 0.00 0.00 0.00 83 1019.2
20260831045001 75 155 1.0 5.0 0.00 0.00 0.00 83 1019.1
20260831044504 75 156 1.0 5.0 0.00 0.00 0.00 83 1019.1
20260831044003 75 192 1.0 5.0 0.00 0.00 0.00 83 1019.1
20260831043502 75 122 2.0 5.0 0.00 0.00 0.00 83 1019.0
20260831043004 75 140 2.0 5.0 0.00 0.00 0.00 83 1018.9
20260831042502 75 159 2.0 4.0 0.00 0.00 0.00 84 1019.0
20260831042004 74 157 2.0 4.0 0.00 0.00 0.00 84 1019.1
20260831041504 74 126 2.0 4.0 0.00 0.00 0.00 84 1019.1
20260831041006 74 162 2.0 5.0 0.00 0.00 0.00 85 1019.0
20260831040506 74 119 4.0 5.0 0.00 0.00 0.00 85 1019.0
20260831040019 74 127 2.0 3.0 0.00 0.00 0.00 84 1019.0
20260831035507 74 143 1.0 2.0 0.00 0.00 0.00 84 1019.1
20260831035005 74 148 0.0 3.0 0.00 0.00 0.00 84 1019.0
20260831034503 74 133 2.0 3.0 0.00 0.00 0.00 84 1019.0
20260831034006 74 130 1.0 4.0 0.00 0.00 0.00 84 1018.9
20260831033503 74 140 1.0 4.0 0.00 0.00 0.00 84 1019.0
20260831033007 74 132 2.0 5.0 0.00 0.00 0.00 84 1019.0
20260831032504 74 111 1.0 5.0 0.00 0.00 0.00 83 1019.0
20260831032004 74 127 2.0 3.0 0.00 0.00 0.00 83 1018.9
20260831031507 74 145 1.0 3.0 0.00 0.00 0.00 83 1018.9
20260831031005 75 141 1.0 2.0 0.00 0.00 0.00 83 1019.0
20260831030509 75 113 1.0 2.0 0.00 0.00 0.00 82 1019.0
20260831030014 75 132 1.0 3.0 0.00 0.00 0.00 82 1019.0
20260831025505 75 127 1.0 3.0 0.00 0.00 0.00 82 1019.1
20260831025006 75 128 1.0 3.0 0.00 0.00 0.00 82 1019.2
20260831024514 75 113 1.0 3.0 0.00 0.00 0.00 81 1019.1
20260831024003 76 102 2.0 3.0 0.00 0.00 0.00 81 1019.1
20260831023512 76 109 2.0 3.0 0.00 0.00 0.00 80 1019.1
20260831023015 76 121 2.0 3.0 0.00 0.00 0.00 80 1019.1
20260831022517 76 98 1.0 2.0 0.00 0.00 0.00 80 1019.1
20260831022010 76 118 1.0 3.0 0.00 0.00 0.00 79 1019.1
20260831021515 76 100 2.0 3.0 0.00 0.00 0.00 79 1019.1
20260831021004 77 121 1.0 3.0 0.00 0.00 0.00 78 1019.1
20260831020503 77 111 2.0 2.0 0.00 0.00 0.00 78 1019.0
20260831020005 77 111 1.0 3.0 0.00 0.00 0.00 78 1018.9
20260831015508 77 101 1.0 3.0 0.00 0.00 0.00 77 1018.9
20260831015008 78 120 2.0 3.0 0.00 0.00 0.00 76 1018.8
20260831014514 78 149 2.0 3.0 0.00 0.00 0.00 76 1018.8
20260831014008 78 107 2.0 4.0 0.00 0.00 0.00 76 1018.9
20260831013506 78 103 2.0 4.0 0.00 0.00 0.00 75 1018.9
20260831013018 78 109 2.0 4.0 0.00 0.00 0.00 75 1018.7
20260831012510 78 113 2.0 4.0 0.00 0.00 0.00 76 1018.7
20260831012004 78 116 2.0 4.0 0.00 0.00 0.00 76 1018.7
20260831011521 78 101 2.0 4.0 0.00 0.00 0.00 75 1018.6
20260831011004 78 107 2.0 4.0 0.00 0.00 0.00 76 1018.5
20260831010516 79 116 2.0 3.0 0.00 0.00 0.00 75 1018.7
20260831010015 79 84 2.0 3.0 0.00 0.00 0.00 74 1018.6
20260831005504 80 98 2.0 2.0 0.00 0.00 0.00 73 1018.4
20260831005009 80 96 1.0 3.0 0.00 0.00 0.00 73 1018.3
20260831004510 81 96 1.0 3.0 0.00 0.00 0.00 72 1018.3
20260831004004 81 97 2.0 3.0 0.00 0.00 0.00 70 1018.2
20260831003510 82 103 1.0 3.0 0.00 0.00 0.00 70 1018.1
20260831003009 82 96 2.0 4.0 0.00 0.00 0.00 68 1018.1
20260831002511 82 98 2.0 4.0 0.00 0.00 0.00 67 1018.1
20260831002014 82 115 2.0 6.0 0.00 0.00 0.00 66 1018.1
20260831001522 82 96 2.0 6.0 0.00 0.00 0.00 66 1018.0
20260831001016 82 101 3.0 6.0 0.00 0.00 0.00 66 1018.0
20260831000508 82 115 4.0 6.0 0.00 0.00 0.00 65 1017.9
20260831000007 83 97 2.0 4.0 0.00 0.00 0.00 66 1017.9
20260830235514 84 82 2.0 3.0 0.00 0.00 0.00 67 1017.8
20260830235006 84 109 2.0 3.0 0.00 0.00 0.00 66 1017.8
20260830234508 85 103 0.0 0.0 0.00 0.00 0.00 66 1017.9
20260830234006 86 127 0.0 0.0 0.00 0.00 0.00 64 1017.9
20260830233510 87 127 0.0 0.0 0.00 0.00 0.00 63 1017.8
20260830233016 88 221 0.0 0.0 0.00 0.00 0.00 61 1017.8
20260830232508 89 140 0.0 0.0 0.00 0.00 0.00 59 1017.7
20260830232005 89 138 0.0 1.0 0.00 0.00 0.00 57 1017.7
20260830231527 89 244 0.0 5.0 0.00 0.00 0.00 55 1017.7
20260830231010 89 148 1.0 8.0 0.00 0.00 0.00 55 1017.6
20260830230513 89 196 5.0 8.0 0.00 0.00 0.00 55 1017.7
20260830230023 89 159 4.0 8.0 0.00 0.00 0.00 54 1017.8
20260830225509 89 125 5.0 8.0 0.00 0.00 0.00 52 1017.7
20260830225017 89 100 2.0 7.0 0.00 0.00 0.00 57 1017.6
20260830224520 88 213 2.0 7.0 0.00 0.00 0.00 55 1017.6
20260830224019 88 138 2.0 7.0 0.00 0.00 0.00 60 1017.5
20260830223516 86 144 1.0 4.0 0.00 0.00 0.00 61 1017.5
20260830223017 86 113 0.0 6.0 0.00 0.00 0.00 62 1017.5
20260830222509 86 126 2.0 6.0 0.00 0.00 0.00 61 1017.6
20260830222009 87 121 1.0 6.0 0.00 0.00 0.00 59 1017.6
20260830221514 87 119 1.0 6.0 0.00 0.00 0.00 59 1017.7
20260830221008 88 113 1.0 3.0 0.00 0.00 0.00 57 1017.7
20260830220512 88 167 2.0 3.0 0.00 0.00 0.00 57 1017.7
20260830220005 88 149 1.0 5.0 0.00 0.00 0.00 54 1017.7
20260830215502 89 111 2.0 5.0 0.00 0.00 0.00 54 1017.8
20260830215002 89 150 2.0 8.0 0.00 0.00 0.00 53 1017.9
20260830214503 90 192 3.0 8.0 0.00 0.00 0.00 54 1017.9
20260830214003 90 94 3.0 8.0 0.00 0.00 0.00 52 1017.7
20260830213505 89 143 5.0 9.0 0.00 0.00 0.00 53 1017.8
20260830213002 89 165 4.0 10.0 0.00 0.00 0.00 55 1017.7
20260830212502 89 89 6.0 10.0 0.00 0.00 0.00 55 1017.7
20260830212002 89 96 2.0 7.0 0.00 0.00 0.00 54 1017.7
20260830211511 90 85 4.0 7.0 0.00 0.00 0.00 51 1017.8
20260830211003 91 117 2.0 8.0 0.00 0.00 0.00 52 1017.9
20260830210503 92 57 4.0 8.0 0.00 0.00 0.00 50 1017.8
20260830210008 92 146 4.0 10.0 0.00 0.00 0.00 48 1017.9
20260830205506 93 101 5.0 10.0 0.00 0.00 0.00 47 1018.0
20260830205004 92 183 2.0 7.0 0.00 0.00 0.00 50 1017.9
20260830204504 92 160 3.0 8.0 0.00 0.00 0.00 49 1018.0
20260830204007 92 134 2.0 8.0 0.00 0.00 0.00 49 1018.0
20260830203504 92 122 4.0 8.0 0.00 0.00 0.00 50 1018.1
20260830203009 92 169 3.0 8.0 0.00 0.00 0.00 49 1018.2
20260830202507 92 197 4.0 8.0 0.00 0.00 0.00 51 1018.3
20260830202004 91 100 3.0 10.0 0.00 0.00 0.00 54 1018.4
20260830201502 91 146 7.0 10.0 0.00 0.00 0.00 52 1018.5
20260830201002 90 68 4.0 9.0 0.00 0.00 0.00 52 1018.5
20260830200505 90 92 6.0 8.0 0.00 0.00 0.00 50 1018.5
20260830200003 90 37 2.0 10.0 0.00 0.00 0.00 52 1018.6
20260830195501 90 94 3.0 11.0 0.00 0.00 0.00 51 1018.7
20260830195003 92 138 6.0 11.0 0.00 0.00 0.00 50 1018.7
20260830194502 92 15 2.0 10.0 0.00 0.00 0.00 50 1018.7
20260830194002 93 209 3.0 10.0 0.00 0.00 0.00 48 1018.7
20260830193502 93 228 2.0 8.0 0.00 0.00 0.00 49 1018.7
20260830193003 93 186 2.0 9.0 0.00 0.00 0.00 50 1018.8
20260830192501 92 227 2.0 11.0 0.00 0.00 0.00 52 1018.9
20260830192001 92 146 5.0 11.0 0.00 0.00 0.00 52 1018.9
20260830191507 92 83 2.0 9.0 0.00 0.00 0.00 51 1019.0
20260830191002 91 289 6.0 9.0 0.00 0.00 0.00 51 1018.9
20260830190504 90 153 2.0 8.0 0.00 0.00 0.00 54 1019.1
20260830190014 89 270 1.0 10.0 0.00 0.00 0.00 58 1019.2
20260830185502 89 223 3.0 10.0 0.00 0.00 0.00 56 1019.4
20260830185001 90 126 5.0 8.0 0.00 0.00 0.00 54 1019.4
20260830184508 90 286 2.0 5.0 0.00 0.00 0.00 53 1019.3
20260830184004 90 209 2.0 9.0 0.00 0.00 0.00 54 1019.4
20260830183503 89 241 2.0 8.0 0.00 0.00 0.00 56 1019.4
20260830183008 90 153 2.0 8.0 0.00 0.00 0.00 55 1019.5
20260830182503 90 300 1.0 8.0 0.00 0.00 0.00 52 1019.5
20260830182003 90 165 2.0 5.0 0.00 0.00 0.00 54 1019.6
20260830181504 90 158 3.0 8.0 0.00 0.00 0.00 53 1019.7
20260830181006 90 156 2.0 10.0 0.00 0.00 0.00 53 1019.9
20260830180507 89 82 6.0 10.0 0.00 0.00 0.00 56 1020.1
20260830180009 89 286 2.0 4.0 0.00 0.00 0.00 56 1020.0
20260830175505 89 240 1.0 6.0 0.00 0.00 0.00 56 1020.1
20260830175003 88 149 3.0 6.0 0.00 0.00 0.00 57 1020.3
20260830174517 88 97 2.0 4.0 0.00 0.00 0.00 57 1020.4
20260830174003 88 153 2.0 9.0 0.00 0.00 0.00 60 1020.4
20260830173502 87 200 2.0 9.0 0.00 0.00 0.00 60 1020.5
20260830173004 87 140 3.0 8.0 0.00 0.00 0.00 59 1020.4
20260830172503 86 55 1.0 8.0 0.00 0.00 0.00 63 1020.6
20260830172006 86 107 3.0 11.0 0.00 0.00 0.00 60 1020.5
20260830171504 87 104 5.0 11.0 0.00 0.00 0.00 61 1020.5
20260830171002 86 94 2.0 10.0 0.00 0.00 0.00 62 1020.7
20260830170507 87 194 5.0 10.0 0.00 0.00 0.00 61 1020.8
20260830170006 87 223 2.0 8.0 0.00 0.00 0.00 62 1020.9
20260830165505 86 183 4.0 8.0 0.00 0.00 0.00 60 1020.9
20260830165003 86 158 3.0 9.0 0.00 0.00 0.00 63 1020.9
20260830164505 86 126 6.0 9.0 0.00 0.00 0.00 61 1020.9
20260830164005 85 183 3.0 10.0 0.00 0.00 0.00 65 1020.9
20260830163506 85 117 6.0 10.0 0.00 0.00 0.00 64 1021.0
20260830163002 84 85 4.0 8.0 0.00 0.00 0.00 66 1021.1
20260830162506 84 229 2.0 10.0 0.00 0.00 0.00 65 1021.2
20260830162005 84 360 6.0 10.0 0.00 0.00 0.00 66 1021.3
20260830161504 85 91 3.0 9.0 0.00 0.00 0.00 63 1021.3
20260830161004 85 138 1.0 7.0 0.00 0.00 0.00 66 1021.4
20260830160503 85 91 2.0 9.0 0.00 0.00 0.00 67 1021.6
20260830160006 85 108 6.0 9.0 0.00 0.00 0.00 67 1021.6
20260830155507 85 140 4.0 7.0 0.00 0.00 0.00 72 1021.5
20260830155004 84 63 3.0 8.0 0.00 0.00 0.00 69 1021.4
20260830154513 83 69 3.0 12.0 0.00 0.00 0.00 69 1021.5
20260830154004 83 130 2.0 12.0 0.00 0.00 0.00 69 1021.5
20260830153503 84 130 5.0 10.0 0.00 0.00 0.00 69 1021.5
20260830153013 83 100 4.0 10.0 0.00 0.00 0.00 69 1021.5
20260830152508 83 47 4.0 11.0 0.00 0.00 0.00 69 1021.4
20260830152009 83 118 4.0 11.0 0.00 0.00 0.00 72 1021.6
20260830151519 82 76 5.0 9.0 0.00 0.00 0.00 71 1021.5
20260830151005 82 126 3.0 10.0 0.00 0.00 0.00 74 1021.6
20260830150505 83 118 6.0 11.0 0.00 0.00 0.00 71 1021.6
20260830150008 82 128 4.0 9.0 0.00 0.00 0.00 72 1021.7
20260830145504 82 79 3.0 11.0 0.00 0.00 0.00 76 1021.7
20260830145005 82 111 5.0 11.0 0.00 0.00 0.00 74 1021.7
20260830144509 82 125 3.0 9.0 0.00 0.00 0.00 75 1021.7
20260830144005 82 108 3.0 9.0 0.00 0.00 0.00 75 1021.7
20260830143506 81 144 5.0 9.0 0.00 0.00 0.00 77 1021.8
20260830143006 81 178 4.0 9.0 0.00 0.00 0.00 79 1021.9
20260830142511 81 123 4.0 9.0 0.00 0.00 0.00 79 1021.9
20260830142008 80 134 3.0 7.0 0.00 0.00 0.00 80 1021.8
20260830141514 79 344 4.0 8.0 0.00 0.00 0.00 83 1021.8
20260830141009 78 344 2.0 9.0 0.00 0.00 0.00 83 1021.9
20260830140505 78 344 4.0 9.0 0.00 0.00 0.00 82 1021.8
20260830140018 78 360 4.0 9.0 0.00 0.00 0.00 83 1021.8
20260830135504 78 333 3.0 9.0 0.00 0.00 0.00 82 1021.8
20260830135006 78 337 4.0 8.0 0.00 0.00 0.00 82 1021.8
20260830134520 78 333 4.0 8.0 0.00 0.00 0.00 82 1021.8
20260830134006 78 346 2.0 9.0 0.00 0.00 0.00 85 1021.8
20260830133505 78 344 5.0 9.0 0.00 0.00 0.00 84 1021.9
20260830133013 77 345 3.0 7.0 0.00 0.00 0.00 84 1021.8
20260830132506 77 344 3.0 8.0 0.00 0.00 0.00 84 1021.8
20260830132013 77 132 3.0 8.0 0.00 0.00 0.00 85 1021.7
20260830131519 77 126 4.0 6.0 0.00 0.00 0.00 84 1021.6
20260830131006 77 116 3.0 6.0 0.00 0.00 0.00 85 1021.4
20260830130512 76 121 3.0 4.0 0.00 0.00 0.00 86 1021.3
20260830130005 76 67 2.0 4.0 0.00 0.00 0.00 87 1021.3
20260830125503 75 55 1.0 7.0 0.00 0.00 0.00 88 1021.3
20260830125003 75 111 3.0 7.0 0.00 0.00 0.00 88 1021.4
20260830124508 74 61 1.0 6.0 0.00 0.00 0.00 90 1021.3
20260830124008 74 111 3.0 6.0 0.00 0.00 0.00 90 1021.1
20260830123502 74 96 2.0 3.0 0.00 0.00 0.00 91 1021.1
20260830123007 73 98 1.0 3.0 0.00 0.00 0.00 93 1021.1
20260830122502 73 111 2.0 3.0 0.00 0.00 0.00 93 1021.0
20260830122002 72 96 2.0 3.0 0.00 0.00 0.00 94 1020.9
20260830121503 72 80 2.0 3.0 0.00 0.00 0.00 94 1020.8
20260830121003 71 80 2.0 2.0 0.00 0.00 0.00 93 1020.7
20260830120503 71 86 1.0 3.0 0.00 0.00 0.00 93 1020.6
20260830120004 70 80 1.0 3.0 0.00 0.00 0.00 93 1020.7
20260830115502 70 102 2.0 3.0 0.00 0.00 0.00 92 1020.6
20260830115005 70 78 1.0 3.0 0.00 0.00 0.00 93 1020.6
20260830114503 70 90 2.0 3.0 0.00 0.00 0.00 93 1020.5
20260830114001 69 67 2.0 3.0 0.00 0.00 0.00 92 1020.5
20260830113502 69 81 2.0 3.0 0.00 0.00 0.00 92 1020.4
20260830113006 69 99 1.0 2.0 0.00 0.00 0.00 92 1020.4
20260830112507 70 82 1.0 2.0 0.00 0.00 0.00 91 1020.3
20260830112003 70 82 1.0 3.0 0.00 0.00 0.00 92 1020.4
20260830111504 70 81 1.0 3.0 0.00 0.00 0.00 92 1020.3
20260830111004 70 74 1.0 3.0 0.00 0.00 0.00 92 1020.2
20260830110503 70 78 1.0 3.0 0.00 0.00 0.00 92 1020.3
20260830110005 70 65 2.0 4.0 0.00 0.00 0.00 92 1020.2
20260830105503 69 68 2.0 4.0 0.00 0.00 0.00 92 1020.1
20260830105004 69 65 2.0 4.0 0.00 0.00 0.00 92 1020.1
20260830104504 69 67 2.0 4.0 0.00 0.00 0.00 92 1020.0
20260830104003 69 49 2.0 4.0 0.00 0.00 0.00 92 1020.0
20260830103502 69 46 0.0 0.0 0.00 0.00 0.00 91 1019.8
20260830103007 69 54 0.0 0.0 0.00 0.00 0.00 91 1019.7
20260830102503 69 134 0.0 0.0 0.00 0.00 0.00 91 1019.6
20260830102006 69 134 0.0 0.0 0.00 0.00 0.00 91 1019.5
20260830101512 69 134 0.0 0.0 0.00 0.00 0.00 91 1019.5
20260830101007 69 134 0.0 0.0 0.00 0.00 0.00 91 1019.5
20260830100510 69 136 0.0 0.0 0.00 0.00 0.00 91 1019.4
20260830100010 69 135 0.0 0.0 0.00 0.00 0.00 91 1019.4
20260830095503 69 134 0.0 0.0 0.00 0.00 0.00 91 1019.4
20260830095003 69 134 0.0 0.0 0.00 0.00 0.00 91 1019.3
20260830094504 70 134 0.0 0.0 0.00 0.00 0.00 91 1019.3
20260830094004 70 134 0.0 0.0 0.00 0.00 0.00 91 1019.3
20260830093504 70 134 0.0 0.0 0.00 0.00 0.00 91 1019.2
20260830093004 70 134 0.0 0.0 0.00 0.00 0.00 91 1019.2
20260830092504 70 134 0.0 0.0 0.00 0.00 0.00 91 1019.3
20260830092004 70 134 0.0 0.0 0.00 0.00 0.00 91 1019.3
20260830091503 70 134 0.0 0.0 0.00 0.00 0.00 91 1019.3
20260830091008 70 134 0.0 0.0 0.00 0.00 0.00 91 1019.3
20260830090504 70 134 0.0 0.0 0.00 0.00 0.00 92 1019.2
20260830090019 70 134 0.0 0.0 0.00 0.00 0.00 92 1019.1
20260830085508 70 134 0.0 0.0 0.00 0.00 0.00 91 1019.1
20260830085004 70 134 0.0 0.0 0.00 0.00 0.00 91 1019.1
20260830084523 70 134 0.0 0.0 0.00 0.00 0.00 91 1019.2
20260830084004 70 134 0.0 1.0 0.00 0.00 0.00 91 1019.1
20260830083504 70 134 0.0 2.0 0.00 0.00 0.00 91 1019.1
20260830083006 70 134 0.0 2.0 0.00 0.00 0.00 91 1019.1
20260830082504 70 136 0.0 1.0 0.00 0.00 0.00 90 1019.1
20260830082005 70 147 1.0 1.0 0.00 0.00 0.00 90 1019.1
20260830081511 70 146 1.0 1.0 0.00 0.00 0.00 90 1019.1
20260830081004 70 146 1.0 1.0 0.00 0.00 0.00 90 1019.1
20260830080504 70 171 0.0 2.0 0.00 0.00 0.00 90 1019.1
20260830080012 71 171 0.0 2.0 0.00 0.00 0.00 90 1019.1
20260830075503 71 123 0.0 2.0 0.00 0.00 0.00 90 1019.1
20260830075012 71 122 0.0 0.0 0.00 0.00 0.00 90 1019.1
20260830074520 71 122 0.0 0.0 0.00 0.00 0.00 90 1019.0
20260830074015 71 122 0.0 0.0 0.00 0.00 0.00 90 1019.1
20260830073508 71 122 0.0 0.0 0.00 0.00 0.00 90 1019.2
20260830073007 71 122 0.0 2.0 0.00 0.00 0.00 90 1019.2
20260830072517 71 122 0.0 2.0 0.00 0.00 0.00 91 1019.2
20260830072007 71 125 1.0 3.0 0.00 0.00 0.00 90 1019.1
20260830071507 71 133 1.0 3.0 0.00 0.00 0.00 90 1019.2
20260830071005 71 138 2.0 3.0 0.00 0.00 0.00 89 1019.2
20260830070507 71 122 1.0 3.0 0.00 0.00 0.00 89 1019.2
20260830070009 71 147 1.0 2.0 0.00 0.00 0.00 89 1019.3
20260830065505 71 130 1.0 2.0 0.00 0.00 0.00 89 1019.3
20260830065006 72 129 1.0 2.0 0.00 0.00 0.00 89 1019.4
20260830064516 72 123 1.0 2.0 0.00 0.00 0.00 89 1019.5